Terminal Aerodrome Forecast
Issued by NWS Tampa Bay Area, FL

Home | Current Version | Previous Version | Text Only | Print | Product List | Glossary On
Versions: 1 2 3 4 5 6 7 8 9 10 11 12 13 14 15 16 17 18 19 20 21 22 23 24 25 26
000
FTUS42 KTBW 240540
TAFTPA
TAF
KTPA 240540Z 2406/2506 36009KT P6SM BKN025
     FM240900 01006KT 6SM BR SCT005 BKN025
     FM241500 03007KT P6SM SCT020
     FM241900 33005KT P6SM SCT040=

USA.gov is the U.S. government's official web portal to all federal, state and local government web resources and services.